Regional Weather Roundup
Issued by NWS

Home | Current Version | Previous Version | Text Only | Print | Product List | Glossary On
Versions: 1 2 3 4 5 6 7 8 9 10 11 12 13 14 15 16 17 18 19 20 21 22 23 24 25 26 27
000
ASUS45 KBOU 222310
RWRCO

WEATHER ROUNDUP FOR COLORADO
NATIONAL WEATHER SERVICE DENVER/BOULDER CO
500 PM MDT TUE MAY 22 2018

NOTE: "FAIR" INDICATES FEW OR NO CLOUDS BELOW 12000 FEET WITH NO
SIGNIFICANT WEATHER AND/OR OBSTRUCTIONS TO VISIBILITY.

COZ001>005-013-030-031-230000-
...NORTHWEST COLORADO...

CITY           SKY/WX    TMP DP  RH WIND       PRES   REMARKS
CRAIG          FAIR      60  49  66 W18       30.02S
HAYDEN         FAIR      57  47  69 NW18      30.04S
MEEKER         PTSUNNY   60  42  51 W15       30.02F
RANGELY        MOCLDY    55  50  82 NW8       30.00F
RABBIT EARS PA CLOUDY    41  36  81 SE5       30.24R
STEAMBOAT SPGS CLOUDY    57  40  53 W8        30.04R
WALDEN         PTSUNNY   61  30  31 SW33G39   30.04R
$$

COZ006>008-011-230000-
...WEST CENTRAL VALLEYS...

CITY           SKY/WX    TMP DP  RH WIND       PRES   REMARKS
GRAND JUNCTION LGT RAIN  64  49  57 E13       29.95R
MONTROSE       LGT RAIN  58  44  60 NW15      30.04R
EAGLE          CLOUDY    63  38  39 SW9G31    30.02R
RIFLE          CLOUDY    65  40  39 W15G24    30.00R
DELTA          FAIR      62  48  60 N16       29.99F THUNDER
NUCLA          CLOUDY    66  32  28 E16G26    29.99S
$$

COZ017>023-064>068-230000-
...SOUTHWEST COLORADO...

CITY           SKY/WX    TMP DP  RH WIND       PRES   REMARKS
DURANGO        FAIR      74  23  15 SW21G26   29.98F
CORTEZ         FAIR      74  27  17 S15       29.95F
PAGOSA SPRINGS CLOUDY    69  17  14 SW20G31   30.06F
TELLURIDE      PTSUNNY   47  40  77 CALM      30.18S
WOLF CREEK PAS CLOUDY    43  19  39 S26G39    30.32S
$$

COZ009-010-012-014-032>034-037-058>063-230000-
...CENTRAL COLORADO...

CITY           SKY/WX    TMP DP  RH WIND       PRES   REMARKS
ASPEN          PTSUNNY   60  35  39 N10G22    30.04R
BUENA VISTA    LGT RAIN  57  42  55 NW13      30.08F
COPPER MTN     CLOUDY    41  34  75 SE21G28   30.31S
BERTHOUD PASS  CLOUDY    41  32  70 SE24G31   30.32R THUNDER
COTTONWOOD PAS PTSUNNY   57  41  54 W10G17    30.19F
GUNNISON       FAIR      66  30  26 W8        30.04F
GRANBY         CLOUDY    56  37  47 W12       30.08R
KREMMLING      FAIR      64  39  39 CALM      30.06S
LEADVILLE      CLOUDY    45  38  76 MISG      30.20R
MONARCH PASS   PTSUNNY   45  32  61 MISG      30.40F
SALIDA         CLOUDY    67  37  33 NW12G20   30.10F
SUNLIGHT       TSTM      34  34 100 SW17      30.26R WCI  23
WILKERSON PASS PTSUNNY   50  28  43 SW7G23    30.29R
$$

COZ069>075-230000-
...SAN LUIS VALLEY/SANGRE DE CRISTO MOUNTAINS...

CITY           SKY/WX    TMP DP  RH WIND       PRES   REMARKS
ALAMOSA        FAIR      71  31  22 S24G36    30.03F
DEL NORTE      FAIR      69  20  16 SW21      30.05S
LA VETA PASS   FAIR      61  18  18 S22G40    30.32F
SAGUACHE       NOT AVBL
$$

COZ035-036-038>040-230000-
...NORTHERN COLORADO FRONT RANGE...

CITY           SKY/WX    TMP DP  RH WIND       PRES   REMARKS
DENVER INTL AP PTSUNNY   77  42  28 SE17G24   29.83F
AURORA         PTSUNNY   77  41  27 SE20G26   29.86F
FRONT RANGE AP PTSUNNY   81  37  21 E10G26    29.85F
ERIE MUNI ARPT TSTM      71  53  52 S7        29.92R
BOULDER MUN AP FAIR      75  46  35 N6        29.85F THUNDER
CENTENNIAL     LGT RAIN  73  46  38 W13G36    29.87S
BROOMFIELD     NOT AVBL
FORT COLLINS   FAIR      79  48  33 VRB5      29.87S
LONGMONT       FAIR      79  51  37 N13       29.85F
$$

COZ041-046-047-076>085-087-088-230000-
...PIKES PEAK/PALMER DIVIDE AND SOUTHERN FOOTHILLS...

CITY           SKY/WX    TMP DP  RH WIND       PRES   REMARKS
COLO. SPRINGS  FAIR      76  35  22 SE22G30   29.92F
A. F. ACADEMY  SUNNY     76  37  24 SE24G33   29.93S
SCHRIEVER AFB  NOT AVBL
CHEYENNE MTN   PTSUNNY   70  32  24 S17G24    29.93R
ELLICOTT         N/A    N/A N/A N/A S21G29    29.93F
FALCON         PTSUNNY   75  31  20 SE22G33   29.98F
FORT CARSON    FAIR      78  33  19 SE18      29.89F
LIMON          FAIR      77  43  29 SE26G35   29.91S
MONUMENT HILL  FAIR      73  34  23 S26G32    29.98S
CANON CITY     FAIR      82  36  18 NW18      29.86F
WALSENBURG     FAIR      82  37  20 SE10      29.91F
TRINIDAD       FAIR      82  35  18 S31G44    29.89F
$$

COZ042>045-048>051-090-091-230000-
...NORTHEAST COLORADO...

CITY           SKY/WX    TMP DP  RH WIND       PRES   REMARKS
GREELEY ARPT   FAIR      77  50  38 E14       29.85S
AKRON          FAIR      77  51  40 SE24G31   29.88F
BURLINGTON     FAIR      78  50  37 S24G33    29.90F
WRAY           FAIR      79  48  34 S16G24    29.87F
YUMA           FAIR      77  14   9 SE17G24   29.87F
STERLING       FAIR      81  50  34 SE17G23   29.84F
HOLYOKE        FAIR      81  50  34 S18G28    29.88S
FORT MORGAN    FAIR      81  43  25 SE13      29.85F
$$

COZ086-089-092>099-230000-
...SOUTHEAST COLORADO...

CITY           SKY/WX    TMP DP  RH WIND       PRES   REMARKS
PUEBLO         FAIR      84  38  19 SE25G32   29.81F
LA JUNTA       FAIR      71  55  56 N18G28    29.84S THUNDER
LAMAR          FAIR      85  49  28 S26G38    29.82F
SPRINGFIELD      N/A     79  51  37 S28G41    29.92F
$$




USA.gov is the U.S. government's official web portal to all federal, state and local government web resources and services.